[[{"header":{"parameterUnit":"m.s-1","parameterCategory":1,"la1":30.2991,"la2":30.254,"lo1":-89.0895,"lo2":-89.0444,"dy":0.0017,"dx":0.0017,"nx":28,"ny":28,"refTime":"2024-05-28T03:00:00:Z","depth":0,"parameterNumber":2,"parameterNumberName":"U-component_of_WINDS"},"data":[0,0,0,0,0,0,0,0,0,0,0,0,0,0,0,0,0,0,0,0,0,0,0,0,0,0,0,0,0,0,0,0,0,0,0,0,0,0,0,0,0,0,0,0,0,0,0,0,0,0,0,0,0,0,0,0,0,0,1.2923,1.2923,0,1.2937,1.2937,1.2937,1.2863,1.2861,1.2859,1.2857,1.2872,1.2874,1.2876,0,0,0,0,0,0,0,0,0,0,0,0,0,1.2832,1.2835,1.2923,1.2923,1.2923,1.2937,1.2937,1.2937,1.2864,1.2861,1.2859,1.2856,1.2871,1.2874,1.2877,0,0,0,0,0,0,0,0,0,0,0,0,0,1.2862,1.2835,1.2923,1.2888,1.2885,1.2937,1.2937,1.2937,1.2864,1.2861,1.2858,1.2855,1.287,1.2873,1.2877,1.2962,0,0,1.2888,1.2889,0,0,0,0,0,0,0,0,1.286,1.2865,1.2893,1.2891,1.2888,1.2895,1.291,1.2946,1.2865,1.2872,1.2857,1.2854,1.2882,1.2884,1.2894,1.2963,1.2964,1.2888,1.289,1.2892,1.2893,0,0,0,0,0,0,0,1.2858,1.2864,1.2929,1.2894,1.289,1.2872,1.2873,1.2917,1.2895,1.2872,1.2866,1.2869,1.288,1.2891,1.2894,1.2964,1.2888,1.2891,1.2893,1.2895,1.3104,1.3107,0,0,0,0,0,0,1.2861,1.2863,1.2928,1.2929,1.2866,1.2876,1.2877,1.2896,1.2894,1.2891,1.2872,1.2865,1.2886,1.289,1.2894,1.2994,1.2892,1.2895,1.2897,1.31,1.3104,1.3108,0,0,0,0,0,0,1.2859,1.2867,1.2928,1.2895,1.2901,1.2881,1.2903,1.2898,1.2909,1.2894,1.289,1.2887,1.2884,1.2889,1.2946,1.2994,1.2897,1.29,1.3096,1.3102,1.3106,1.3196,0,0,0,0,0,0,1.2857,1.2867,1.29,1.2896,1.2903,1.298,1.2906,1.2901,1.2915,1.2907,1.2907,1.2904,1.2882,1.2941,1.295,1.2997,1.2903,1.3092,1.3099,1.3105,1.3188,1.3203,1.3216,0,0,0,0,0,1.2854,1.2924,1.2902,1.291,1.2943,1.2983,1.2986,1.2959,1.2919,1.2952,1.2942,1.2904,1.2987,1.2948,1.2956,1.3006,1.3089,1.3097,1.3104,1.3182,1.32,1.3215,0,0,0,0,0,0,1.2935,1.2923,1.2898,1.2969,1.2977,1.297,1.301,1.2979,1.2999,1.2991,1.2956,1.2956,1.3019,1.3018,1.2974,1.3088,1.3031,1.3041,1.3087,1.3104,1.3118,1.3117,1.2906,0,0,0,0,0,1.2961,1.2994,1.2982,1.3046,1.3051,1.303,1.3046,1.3024,1.3031,1.3035,1.3029,1.3038,1.3065,1.3084,1.3109,1.3187,1.3186,1.3225,1.3239,1.3251,1.326,1.3301,1.3318,1.3134,1.3133,1.3133,0,0,1.3015,1.3013,1.3036,1.3062,1.3066,1.3101,1.3034,1.3073,1.3099,1.3041,1.3094,1.3091,1.3097,1.3166,1.3195,1.3166,1.331,1.326,1.327,1.3273,1.3311,1.3328,1.3344,1.3139,1.3138,1.3137,0,0,1.3132,1.3133,1.3187,1.3192,1.3198,1.3184,1.3197,1.3194,1.3189,1.3242,1.3199,1.3229,1.3277,1.3284,1.3294,1.3413,1.3379,1.3422,1.3494,1.3535,1.355,1.3562,1.3605,1.3621,1.3431,1.3431,1.3431,0,1.3198,1.325,1.3218,1.3261,1.3274,1.3222,1.3276,1.3283,1.3297,1.3307,1.3274,1.3334,1.3335,1.3404,1.3433,1.3442,1.3456,1.3422,1.355,1.3563,1.3574,1.3615,1.3631,1.3436,1.3436,1.3435,1.3435,0,1.3332,1.3368,1.341,1.3425,1.3443,1.3491,1.3467,1.3488,1.3465,1.3454,1.3508,1.3507,1.3531,1.3546,1.3523,1.3612,1.3593,1.3556,1.3498,1.3597,1.3635,1.365,1.3444,1.3442,1.344,1.3439,0,0,1.3501,1.3497,1.3514,1.352,1.3523,1.355,1.3596,1.3619,1.3638,1.3649,1.3687,1.3729,1.3694,1.3706,1.3683,1.3719,1.3814,1.3677,1.3676,1.3703,1.3912,1.394,1.3959,1.3791,1.3793,1.3796,1.3911,0,1.3616,1.3694,1.3667,1.3747,1.378,1.3731,1.377,1.3777,1.3767,1.3794,1.3783,1.3814,1.3765,1.3772,1.3805,1.3795,1.3855,1.3786,1.3826,1.3828,1.3827,1.3978,1.4009,1.4118,1.3926,1.3928,1.393,0,1.3761,1.3778,1.3861,1.3858,1.3871,1.3908,1.3926,1.3952,1.3958,1.3948,1.3961,1.3931,1.3975,1.3917,1.3978,1.3931,1.3946,1.3943,1.3947,1.395,1.3886,1.3987,1.4152,1.4169,1.3953,1.3951,1.3949,0,1.3877,1.3921,1.3976,1.3983,1.3981,1.4007,1.4008,1.401,1.4026,1.4042,1.4052,1.4073,1.4085,1.4102,1.4079,1.4038,1.4143,1.4082,1.4137,1.4138,1.4162,1.4161,1.4334,1.4171,1.417,1.417,1.417,0,1.4009,1.4062,1.4028,1.4063,1.412,1.4088,1.4146,1.4141,1.4143,1.4176,1.4134,1.4165,1.4132,1.416,1.4141,1.4195,1.42,1.4194,1.4189,1.4199,1.42,1.4208,1.42,1.4174,1.4173,1.4172,1.4172,0,1.4149,1.4128,1.4186,1.4179,1.4178,1.4221,1.4215,1.4246,1.4233,1.4275,1.4283,1.4263,1.4294,1.4271,1.4302,1.429,1.436,1.4344,1.4359,1.4355,1.4411,1.4406,1.4595,1.4619,1.444,1.4442,1.4443,0,1.4235,1.4274,1.4272,1.429,1.4293,1.4324,1.4339,1.4309,1.4327,1.4336,1.4366,1.4393,1.4414,1.4465,1.4453,1.4477,1.4461,1.4525,1.4464,1.4473,1.4463,1.4461,1.4465,1.4538,1.454,1.4542,1.4544,0,1.439,1.4378,1.4402,1.4422,1.4442,1.4457,1.4468,1.4486,1.4455,1.4477,1.4508,1.4523,1.4554,1.4582,1.4601,1.4601,1.4568,1.4563,1.4577,1.4588,1.4595,1.4592,1.4393,1.4559,1.4557,1.4556,1.4555,1.4555,1.4506,1.4539,1.4542,1.457,1.4575,1.4587,1.4616,1.4607,1.4632,1.4655,1.4635,1.4672,1.4676,1.4698,1.4702,1.4731,1.4704,1.4724,1.473,1.4735,1.4744,1.4589,1.4734,1.4734,1.4733,1.4733,1.4732,0,1.466,1.4659,1.4685,1.4702,1.4724,1.469,1.4701,1.4722,1.4755,1.4761,1.4782,1.4817,1.4844,1.4834,1.4857,1.4882,1.4868,1.4889,1.4888,1.4888,1.4766,1.4752,1.4901,1.4901,1.4901,1.4901,1.4901,1.4901,1.4742,1.4796,1.4784,1.484,1.4839,1.4875,1.4884,1.4894,1.4899,1.4941,1.4963,1.4956,1.4956,1.4979,1.5002,1.4998,1.5009,1.5037,1.5028,1.4914,1.4897,1.4881,1.4868,1.5039,1.5039,1.5148,1.5149,1.515]},{"header":{"parameterUnit":"m.s-1","parameterCategory":1,"la1":30.2991,"la2":30.254,"lo1":-89.0895,"lo2":-89.0444,"dy":0.0017,"dx":0.0017,"nx":28,"ny":28,"refTime":"2024-05-28T03:00:00:Z","depth":0,"parameterNumber":3,"parameterNumberName":"V-component_of_WINDS"},"data":[0,0,0,0,0,0,0,0,0,0,0,0,0,0,0,0,0,0,0,0,0,0,0,0,0,0,0,0,0,0,0,0,0,0,0,0,0,0,0,0,0,0,0,0,0,0,0,0,0,0,0,0,0,0,0,0,0,0,-0.4175,-0.4175,0,-0.4157,-0.4157,-0.4157,-0.4163,-0.4163,-0.4163,-0.4164,-0.4142,-0.4142,-0.4141,0,0,0,0,0,0,0,0,0,0,0,0,0,-0.421,-0.4209,-0.4175,-0.4175,-0.4174,-0.4157,-0.4157,-0.4157,-0.4163,-0.4163,-0.4163,-0.4164,-0.4143,-0.4142,-0.4141,0,0,0,0,0,0,0,0,0,0,0,0,0,-0.4194,-0.4209,-0.4175,-0.4175,-0.4175,-0.4157,-0.4157,-0.4157,-0.4162,-0.4163,-0.4164,-0.4164,-0.4143,-0.4142,-0.414,-0.412,0,0,-0.4136,-0.4136,0,0,0,0,0,0,0,0,-0.4195,-0.4192,-0.4175,-0.4175,-0.4175,-0.4163,-0.4162,-0.4144,-0.4162,-0.4167,-0.4164,-0.4164,-0.4148,-0.4147,-0.4142,-0.4119,-0.4118,-0.4136,-0.4135,-0.4135,-0.4134,0,0,0,0,0,0,0,-0.4196,-0.4193,-0.4168,-0.4175,-0.4175,-0.4175,-0.4174,-0.4158,-0.4155,-0.4167,-0.4167,-0.4165,-0.4148,-0.4143,-0.4142,-0.4118,-0.4136,-0.4135,-0.4134,-0.4133,-0.4078,-0.4077,0,0,0,0,0,0,-0.4198,-0.4194,-0.4168,-0.4167,-0.4187,-0.4174,-0.4172,-0.4166,-0.4155,-0.4154,-0.4165,-0.4165,-0.4145,-0.4143,-0.4141,-0.4116,-0.4135,-0.4133,-0.4132,-0.4078,-0.4078,-0.4077,0,0,0,0,0,0,-0.4198,-0.4195,-0.4169,-0.4181,-0.4178,-0.4173,-0.4166,-0.4165,-0.416,-0.4153,-0.4152,-0.416,-0.4146,-0.4143,-0.4126,-0.4116,-0.4133,-0.4131,-0.4079,-0.4078,-0.4077,-0.4068,0,0,0,0,0,0,-0.4199,-0.4195,-0.4188,-0.4181,-0.4177,-0.4155,-0.4165,-0.4165,-0.4158,-0.4159,-0.4149,-0.4148,-0.4146,-0.4128,-0.4124,-0.4114,-0.413,-0.408,-0.4079,-0.4077,-0.4069,-0.4066,-0.4064,0,0,0,0,0,-0.4201,-0.4186,-0.4188,-0.4185,-0.4168,-0.4154,-0.4152,-0.4151,-0.4158,-0.415,-0.4146,-0.4148,-0.4118,-0.4126,-0.4122,-0.4111,-0.408,-0.4079,-0.4078,-0.407,-0.4067,-0.4064,0,0,0,0,0,0,-0.4191,-0.4185,-0.4187,-0.417,-0.4163,-0.4155,-0.4146,-0.4148,-0.4138,-0.4139,-0.4138,-0.4135,-0.4118,-0.4113,-0.4122,-0.4091,-0.41,-0.4098,-0.4095,-0.4092,-0.409,-0.4091,-0.4129,0,0,0,0,0,-0.4187,-0.4177,-0.4172,-0.4157,-0.4153,-0.415,-0.4144,-0.4144,-0.4136,-0.4133,-0.4127,-0.4119,-0.4107,-0.41,-0.4089,-0.4068,-0.4066,-0.4059,-0.4057,-0.4055,-0.4053,-0.4042,-0.4038,-0.4072,-0.4072,-0.4072,0,0,-0.4178,-0.4174,-0.4167,-0.4155,-0.4149,-0.4138,-0.4148,-0.4135,-0.4127,-0.4131,-0.4115,-0.411,-0.41,-0.4082,-0.4073,-0.4077,-0.4043,-0.4053,-0.4052,-0.4051,-0.404,-0.4037,-0.4034,-0.4071,-0.4071,-0.4071,0,0,-0.4157,-0.4153,-0.414,-0.4134,-0.4127,-0.4125,-0.4122,-0.4114,-0.4112,-0.4096,-0.4098,-0.4088,-0.4068,-0.4061,-0.4055,-0.4032,-0.4033,-0.4028,-0.4016,-0.4005,-0.4003,-0.4,-0.3992,-0.3988,-0.4026,-0.4026,-0.4026,0,-0.4146,-0.4131,-0.4132,-0.412,-0.4114,-0.4119,-0.4105,-0.41,-0.4088,-0.4084,-0.4089,-0.4064,-0.4058,-0.4038,-0.4032,-0.4027,-0.4023,-0.4029,-0.4003,-0.4001,-0.3999,-0.399,-0.3987,-0.4025,-0.4025,-0.4025,-0.4025,0,-0.4119,-0.4108,-0.4099,-0.4089,-0.4082,-0.4069,-0.4067,-0.406,-0.4061,-0.4058,-0.4041,-0.4034,-0.4022,-0.4017,-0.4017,-0.3997,-0.3999,-0.4004,-0.4012,-0.3995,-0.3987,-0.3984,-0.4024,-0.4025,-0.4025,-0.4025,0,0,-0.409,-0.4082,-0.4078,-0.4074,-0.4066,-0.4057,-0.4044,-0.4034,-0.4027,-0.4019,-0.4008,-0.3992,-0.3996,-0.3989,-0.3988,-0.3979,-0.396,-0.3984,-0.3984,-0.398,-0.3936,-0.3933,-0.3929,-0.3962,-0.3961,-0.3961,-0.3937,0,-0.4068,-0.4047,-0.4047,-0.4027,-0.4017,-0.4021,-0.401,-0.4003,-0.4001,-0.3991,-0.3987,-0.3976,-0.3982,-0.3978,-0.3969,-0.3964,-0.3951,-0.3966,-0.395,-0.395,-0.3952,-0.3925,-0.3921,-0.3899,-0.3934,-0.3934,-0.3933,0,-0.4039,-0.4031,-0.401,-0.4004,-0.4,-0.399,-0.398,-0.3971,-0.3964,-0.3962,-0.3955,-0.3956,-0.3942,-0.3952,-0.3932,-0.3942,-0.3936,-0.3932,-0.3931,-0.3929,-0.394,-0.3922,-0.3892,-0.3889,-0.3928,-0.3929,-0.3929,0,-0.4019,-0.4004,-0.399,-0.3986,-0.3978,-0.3971,-0.3968,-0.3961,-0.3954,-0.3945,-0.3941,-0.393,-0.3924,-0.3915,-0.3913,-0.392,-0.3893,-0.3903,-0.3891,-0.3891,-0.3884,-0.3885,-0.3853,-0.3881,-0.3881,-0.3881,-0.3881,0,-0.3994,-0.3981,-0.3981,-0.3972,-0.3957,-0.3958,-0.3943,-0.394,-0.3934,-0.3924,-0.3926,-0.3916,-0.3915,-0.3904,-0.3902,-0.3886,-0.3883,-0.3881,-0.388,-0.388,-0.3881,-0.3876,-0.3877,-0.388,-0.3881,-0.3881,-0.3881,0,-0.397,-0.3969,-0.3954,-0.3949,-0.3947,-0.3936,-0.3931,-0.3922,-0.392,-0.3907,-0.3904,-0.39,-0.3888,-0.3885,-0.387,-0.3869,-0.385,-0.3851,-0.3853,-0.3853,-0.3841,-0.3842,-0.3804,-0.3799,-0.3831,-0.3831,-0.3831,0,-0.3954,-0.3944,-0.3938,-0.3932,-0.3928,-0.3918,-0.3912,-0.3912,-0.3906,-0.3897,-0.3888,-0.3877,-0.3868,-0.3848,-0.3843,-0.3831,-0.3832,-0.382,-0.383,-0.383,-0.3831,-0.3832,-0.383,-0.3817,-0.3817,-0.3817,-0.3817,0,-0.3925,-0.3925,-0.3917,-0.3908,-0.3901,-0.3894,-0.3887,-0.3882,-0.3881,-0.3873,-0.3861,-0.3854,-0.384,-0.3828,-0.3816,-0.3811,-0.3813,-0.3813,-0.381,-0.381,-0.3811,-0.381,-0.3847,-0.3814,-0.3814,-0.3814,-0.3815,-0.3815,-0.3903,-0.3895,-0.389,-0.388,-0.3876,-0.3869,-0.3861,-0.3858,-0.3849,-0.3838,-0.3838,-0.3825,-0.3817,-0.3803,-0.3797,-0.3786,-0.379,-0.3785,-0.3784,-0.3782,-0.3781,-0.3813,-0.3784,-0.3784,-0.3784,-0.3784,-0.3784,0,-0.3874,-0.3871,-0.3863,-0.3854,-0.3846,-0.385,-0.3843,-0.3836,-0.3825,-0.3818,-0.381,-0.3796,-0.3785,-0.3779,-0.3768,-0.376,-0.3761,-0.3757,-0.3757,-0.3756,-0.3779,-0.3783,-0.3757,-0.3757,-0.3757,-0.3757,-0.3757,-0.3757,-0.3858,-0.3844,-0.3844,-0.3828,-0.3824,-0.3813,-0.3808,-0.3802,-0.3797,-0.3782,-0.3773,-0.377,-0.3764,-0.3752,-0.3741,-0.374,-0.3735,-0.3731,-0.373,-0.3751,-0.3754,-0.3757,-0.3761,-0.373,-0.373,-0.3708,-0.3708,-0.3708]}]]